Change the Weather History Date:

Friday, September 16, 2011

  Actual Average Record
Temperature  
Mean Temperature 53 °F 68 °F  
Max Temperature 59 °F 78 °F 97 °F (1991)
Min Temperature 46 °F 58 °F 42 °F (1984)
Degree Days  
Heating Degree Days 12 1  
Month to date heating degree days 15 8  
Since 1 July heating degree days 15 9  
Cooling Degree Days 0 4  
Month to date cooling degree days 109 100  
Year to date cooling degree days 1493 1147  
Growing Degree Days 2 (Base 50)    
Moisture  
Dew Point 40 °F    
Average Humidity 62    
Maximum Humidity 77    
Minimum Humidity 47    
Precipitation  
Precipitation 0.00 in 0.14 in 2.05 in (1934)
Month to date precipitation 6.34 2.18  
Year to date precipitation 31.43 30.31  
Snow  
Snow 0.00 in - - ()
Month to date snowfall 0.0  
Since 1 July snowfall 0.0  
Since 1 September snowfall 0.0  
Snow Depth 0.00 in    
Sea Level Pressure  
Sea Level Pressure 30.34 in    
Wind  
Wind Speed 4 mph (NE)    
Max Wind Speed 13 mph    
Max Gust Speed 17 mph    
Visibility 10 miles    
Events      
T = Trace of Precipitation, MM = Missing Value Source: NWS Daily Summary

Daily Weather History Graph

Daily Weather History Graph

Search for Another Location

Airport or City:

Trip Planner

Search our weather history database for the weather conditions in past years. The results will help you decide how hot, cold, wet, or windy it might be!

Date:

Astronomy

Sep. 16, 2011 Rise Set
Actual Time 7:02 AM EDT 7:26 PM EDT
Civil Twilight 6:36 AM EDT 7:52 PM EDT
Nautical Twilight 6:05 AM EDT 8:23 PM EDT
Astronomical Twilight 5:34 AM EDT 8:54 PM EDT
Moon 9:23 PM EDT (9/16) 10:59 AM EDT (9/16)
Length of Visible Light 13h 16m
Length of Day
12h 23m
Waning Gibbous, 84% of the Moon is Illuminated
Sep 16
Waning Gibbous
Sep 20
Last Quarter
Sep 27
New
Oct 3
First Quarter
Oct 11
Full

Hourly Weather History & Observations

Time (EDT) Temp. Windchill Dew Point Humidity Pressure Visibility Wind Dir Wind Speed Gust Speed Precip Events Conditions
12:54 AM 53.6 °F - 39.2 °F 58% 30.26 in 10.0 mi NNE 8.1 mph - N/A   Partly Cloudy
1:54 AM 52.0 °F - 41.0 °F 66% 30.26 in 10.0 mi NE 3.5 mph - N/A   Clear
2:54 AM 50.0 °F - 41.0 °F 71% 30.28 in 10.0 mi NE 4.6 mph - N/A   Clear
3:54 AM 48.9 °F - 41.0 °F 74% 30.30 in 10.0 mi ENE 6.9 mph - N/A   Clear
4:54 AM 48.9 °F - 39.9 °F 71% 30.30 in 10.0 mi NE 8.1 mph - N/A   Clear
5:54 AM 46.9 °F - 39.9 °F 77% 30.32 in 10.0 mi NE 9.2 mph - N/A   Clear
6:54 AM 46.0 °F 42.5 °F 39.9 °F 79% 30.34 in 10.0 mi ENE 6.9 mph - N/A   Clear
7:54 AM 46.9 °F - 39.0 °F 74% 30.36 in 10.0 mi NNE 8.1 mph - N/A   Clear
8:54 AM 48.9 °F - 39.0 °F 69% 30.37 in 10.0 mi NNE 6.9 mph - N/A   Clear
9:54 AM 52.0 °F - 39.0 °F 61% 30.38 in 10.0 mi NNE 9.2 mph - N/A   Scattered Clouds
10:54 AM 54.0 °F - 39.0 °F 57% 30.39 in 10.0 mi NE 8.1 mph - N/A   Overcast
11:54 AM 55.9 °F - 39.0 °F 53% 30.39 in 10.0 mi North 5.8 mph - N/A   Overcast
12:54 PM 55.9 °F - 39.0 °F 53% 30.37 in 10.0 mi Variable 5.8 mph - N/A   Overcast
1:54 PM 57.2 °F - 39.2 °F 51% 30.37 in 10.0 mi Calm Calm - N/A   Mostly Cloudy
2:54 PM 59.0 °F - 39.9 °F 49% 30.35 in 10.0 mi NNW 4.6 mph - N/A   Overcast
3:54 PM 57.9 °F - 39.0 °F 49% 30.32 in 10.0 mi ESE 3.5 mph - N/A   Overcast
4:54 PM 57.9 °F - 37.9 °F 47% 30.32 in 10.0 mi Calm Calm - N/A   Overcast
5:54 PM 57.2 °F - 39.2 °F 51% 30.32 in 10.0 mi SE 4.6 mph - N/A   Overcast
6:54 PM 57.0 °F - 42.1 °F 57% 30.33 in 10.0 mi SE 4.6 mph - N/A   Overcast
7:54 PM 57.0 °F - 42.1 °F 57% 30.33 in 10.0 mi Calm Calm - N/A   Overcast
8:54 PM 55.9 °F - 42.1 °F 60% 30.34 in 10.0 mi ESE 3.5 mph - N/A   Overcast
9:54 PM 55.9 °F - 42.1 °F 60% 30.35 in 10.0 mi Calm Calm - N/A   Overcast
10:54 PM 55.9 °F - 42.1 °F 60% 30.35 in 10.0 mi Calm Calm - N/A   Overcast
11:54 PM 55.9 °F - 42.1 °F 60% 30.35 in 10.0 mi Calm Calm - N/A   Overcast